Regional Weather Roundup
Issued by NWS Charleston, SC

Current Version | Previous Version | Graphics & Text | Print | Product List | Glossary On
Versions: 1 2 3 4 5 6 7 8 9 10 11 12 13 14 15 16 17 18 19 20 21 22 23 24 25 26 27 28 29 30 31 32 33 34 35 36 37 38 39 40 41 42 43 44 45 46 47 48 49 50
000
ASUS42 KCHS 251412
RWRCHS

REGIONAL WEATHER ROUNDUP
NATIONAL WEATHER SERVICE CHARLESTON SC
1000 AM EDT THU MAY 25 2017

NOTE: "FAIR" INDICATES FEW OR NO CLOUDS BELOW 12,000 FEET WITH NO
SIGNIFICANT WEATHER AND/OR OBSTRUCTIONS TO VISIBILITY.

NOT ALL STATIONS ARE QUALITY CONTROLLED. USE DATA WITH CAUTION...
ESPECIALLY DEWPOINT OBSERVATIONS.

SCZ027-030-031-034>040-042>050-251500-
...SOUTHEAST SOUTH CAROLINA...

CITY           SKY/WX    TMP DP  RH WIND       PRES   REMARKS
N CHARLESTON   MOSUNNY   71  56  58 W13G18    29.70S
WATERFRONT PRK   N/A     69  60  73 W7G15     29.69S
JOHNS ISLAND   FAIR      72  57  60 SW13G21   29.71F
PINOPOLIS        N/A     66  63  88 SW13      29.61R
MONCKS CORNER  FAIR      66  59  77 SW10G16   29.70S
SUMMERVILLE    FAIR      68  59  73 SW8G16    29.71R
BEAUFORT MCAS  PTSUNNY   71  59  65 SW16      29.73R
BEAUFORT ARPT  FAIR      68  55  64 SW9G20    29.72F
HILTON HEAD IS PTSUNNY   68  57  68 SW14G21   29.75R
WALTERBORO     SUNNY     68  55  64 W13       29.71F
ALLENDALE      FAIR      66  57  72 SW9       29.71R

...SOUTHERN MIDLANDS AND PEE DEE...

CITY           SKY/WX    TMP DP  RH WIND       PRES   REMARKS
GEORGETOWN     FAIR      70  59  68 SW15G25   29.70R
KINGSTREE      FAIR      70  54  56 SW10G20   29.67S
ORANGEBURG     PTSUNNY   65  57  75 W13       29.69R
BARNWELL       FAIR      68  59  73 SW13      29.70S
AIKEN          PTSUNNY   64  55  72 SW12      29.73R
MANNING        FAIR      68  59  73 W25       29.67F
COLUMBIA       MOSUNNY   70  55  59 W15G23    29.66R
SUMTER         SUNNY     68  55  62 SW13G20   29.63S
FLORENCE       MOSUNNY   69  55  60 W18G25    29.64R
MYRTLE BEACH   MOSUNNY   70  61  73 SW16      29.67R
N MYRTLE BEACH CLOUDY    72  61  68 SW14G22   29.65R

$$

GAZ063-065-086>088-099>101-113>116-118-119-134>141-150-251500-
...SOUTHEAST GEORGIA...

CITY           SKY/WX    TMP DP  RH WIND       PRES   REMARKS
SAVANNAH ARPT  MOSUNNY   73  56  54 W14G23    29.75R
HUNTER AAF     PTSUNNY   69  64  86 SW9       29.73R
FORT STEWART   MOSUNNY   69  56  63 SW12      29.74R
STATESBORO     MOSUNNY   67  58  72 W14       29.75R
SYLVANIA       SUNNY     67  59  74 W10G20    29.74S
CLAXTON        FAIR      67  61  80 SW10G18   29.76R

...CSRA...CENTRAL AND FAR SOUTHEAST GEORGIA...

CITY           SKY/WX    TMP DP  RH WIND       PRES   REMARKS
THOMSON        CLOUDY    62  55  77 NW13G22   29.78R
AUGUSTA-BUSH   PTSUNNY   67  59  75 W10       29.71R
AUGUSTA-DANIEL CLOUDY    65  55  70 VRB6      29.72R
SWAINSBORO     FAIR      64  55  72 W13G21    29.76R
VIDALIA        MOSUNNY   66  59  77 W14       29.77R
EASTMAN        PTSUNNY   66  46  48 NW12G21   29.81S
HAZLEHURST     FAIR      68  58  70 W6G17     29.78R
ALMA           SUNNY     68  54  60 W15G21    29.78R
WAYCROSS       PTSUNNY   72  58  62 W16G23    29.79S
JESUP          FAIR      70  54  56 W10G18    29.78S
BAXLEY         FAIR      68  59  73 W14G20    29.78R
BRUNSWICK      MOSUNNY   72  61  68 W13       29.79S
SAINT SIMONS   MOSUNNY   71  60  68 SW10      29.78S

$$

SCZ027-028-034-036>038-045-046-048>050-GAZ119-141-251500-
...LAKE AND SUPPLEMENTAL COASTAL OBSERVATIONS...

STATION/POSITION TIME  TEMP    WIND        PRES    WAVE   SWELL
                       AIR SEA DIR/SP/G            HT/PER HT/PER/DIR
                 (UTC) (F)     (DEG/KT/KT) (MB)    (FT/S) (FT/S/D)
WINYAH BAY       NOT AVBL
LAKE MURRAY      1320   64     260/ 15/ 21 1003.7
ACE BASIN NERRS  1245   67     230/  3     1006.0
FORT PULASKI     1348   69     230/  8/ 13 1007.3S
SAPELO ISLAND    1300   69     260/ 13     1008.0

$$

ANZ835-935-AMZ111-154-330-350-352-354-370-450-454-472-251500-
...C-MAN AND BUOY OBSERVATIONS...

STATION/POSITION TIME  TEMP    WIND        PRES    WAVE   SWELL
                       AIR SEA DIR/SP/G            HT/PER HT/PER/DIR
                 (UTC) (F)     (DEG/KT/KT) (MB)    (FT/S) (FT/S/D)
BUOY 41004       1350   73 76  250/ 21/ 25 1005.9R   7/ 7
BUOY 41008       1250   71 77  240/ 17/ 19 1007.1    4/ 7   2/100/ 7
FOLLY BEACH CMAN 1300   69     250/  7/ 11 1006.7R
CAPERS NEARSHORE 1308   74 77  250/ 19/ 27 1005.3R
FRIPP NEARSHORE  1308   70 77  260/ 17/ 23 1006.1R


STATION/POSITION TIME  TEMP    WIND        PRES    WAVE   SWELL
                       AIR SEA DIR/SP/G            HT/PER HT/PER/DIR
                 (UTC) (F)     (DEG/KT/KT) (MB)    (FT/S) (FT/S/D)
5E ST. MARYS GA  1330      78                N/A     3/ 6
FRYING PAN BUOY  1350   74 76  240/ 25/ 31 1004.8R   9/ 9   7/190/ 9
BUOY 41025       1350   77 78  230/ 19/ 23 1002.8R   8/ 7
CAPE LOOKOUT NC  1300   76     220/ 13/ 16 1002.2R
BUOY 41002       1250   76 76  200/ 23/ 29 1008.6   10/ 7   2/180/12
BUOY 41010       1350   79 79  230/ 16/ 19 1009.9R   7/ 8   2/ 50/10
ST AUGUSTINE FL  1400   72 76  280/ 11/ 15 1010.8R


$$




USA.gov is the U.S. government's official web portal to all federal, state and local government web resources and services.